Other Public Products
Issued by NWS Grand Forks, ND

Home | Current Version | Previous Version | Graphics & Text | Print | Product List | Glossary On
Versions: 1 2 3 4 5 6 7 8 9 10 11 12 13 14 15 16 17 18 19 20 21 22 23 24 25 26 27 28 29 30 31 32 33 34 35 36 37 38 39 40 41 42 43 44 45 46 47 48 49 50
000
FPUS83 KFGF 190831
OPUFGF
PRAIRIE TO PINES WEATHER ROUNDUP
NATIONAL WEATHER SERVICE EASTERN NORTH DAKOTA/GRAND FORKS ND
200 AM CST FRI DEC 19 2014

 **SATELLITE DATA USED TO AUGMENT SKY COVER AT AUTOMATED STATIONS**
 *****  WEATHER ACROSS EASTERN NORTH DAKOTA  *****

CITY           SKY/WX    TMP DP  RH WIND       PRES   REMARKS
GRAND FORKS    CLOUDY    21  17  84 S15       30.11F WCI   8
GRAND FORKS AF CLOUDY    21  20  99 S10       30.10F WCI   9
GRAND CITY NWS NOT AVBL
BUXTON           N/A     21  19  93 SE13        N/A  WCI   8
DEVILS LAKE    CLOUDY    23  16  74 S12       30.00S WCI  12
FARGO          CLOUDY    22  18  85 S12       30.14S FOG     WCI  10
WAHPETON ARPT  CLOUDY    23  19  86 S8        30.16S WCI  14
$$

 *****  WEATHER ACROSS CENTRAL AND WESTERN NORTH DAKOTA  *****

CITY           SKY/WX    TMP DP  RH WIND       PRES   REMARKS
JAMESTOWN      CLOUDY    25  23  92 S9        30.03F FOG     WCI  15
BISMARCK       PTCLDY    22  20  92 S6        29.98F WCI  14
MINOT          CLOUDY    25  23  92 E3        29.94S FOG
MINOT AFB      CLOUDY    24  24 100 SE6       29.94S FOG     WCI  17
GARRISON         N/A     29  27  92 S7        29.93S WCI  22
WILLISTON      FOG       26  25  96 CALM      29.92S VSB 1/4
DICKINSON      MOCLDY    30  24  78 SW9       29.89F WCI  22
HETTINGER      PTCLDY    21  17  84 W3        29.94F
$$

 *****  OTHER OBSERVATIONS NORTHEAST NORTH DAKOTA  *****

CITY           SKY/WX    TMP DP  RH WIND       PRES   REMARKS
WALHALLA         N/A     19  19 100 SE8       30.08S FOG     WCI   9
LANGDON        FOG       23  19  86 S13       30.01S VSB 1   WCI  11
CAVALIER       CLOUDY    19  19 100 S8        30.09F FOG     WCI   9
GRAFTON        NOT AVBL
CANDO          CLOUDY    23  23 100 S6        30.00F FOG     WCI  16
FORT TOTTEN      N/A     23  22  95 S6        29.95S WCI  16
ROLLA          CLOUDY    21  21 100 S7        29.98R FOG     WCI  13
RUGBY          CLOUDY    23  23 100 SE7       29.98S FOG     WCI  15
 ***** THE ABOVE OBSERVATIONS ARE NON NWS ARE NOT QUALITY
        CONTROLLED AND MAY MIS-REPORT RAIN FOR SNOW...
$$

 *****  OTHER OBSERVATIONS SOUTHEAST NORTH DAKOTA *****

CITY           SKY/WX    TMP DP  RH WIND       PRES   REMARKS
COOPERSTOWN    NOT AVBL
VALLEY CITY    CLOUDY    23  23 100 S10       30.06S FOG     WCI  12
OAKES            N/A     27  27 100 S9        30.08S WCI  17
GWINNER        CLOUDY    27  27 100 MISG      30.11S
BUFFALO        NOT AVBL
WYNDMERE         N/A     23  21  93 S9          N/A  WCI  13
 ***** THE ABOVE OBSERVATIONS ARE NON NWS ARE NOT QUALITY
       CONTROLLED AND MAY MIS-REPORT RAIN FOR SNOW...
$$

  *****  WEATHER ACROSS NORTHERN MINNESOTA  *****

CITY           SKY/WX    TMP DP  RH WIND       PRES   REMARKS
FLAG ISLAND    CLOUDY    18  16  93 S13       30.15F WCI   4
WARROAD        CLOUDY    19  16  86 S9        30.15F WCI   9
ROSEAU         CLOUDY    19  16  86 S7        30.14F WCI  10
HALLOCK        CLOUDY    21  19  93 SE13G18   30.11F FOG     WCI   9
THF RVR FALLS  CLOUDY    21  18  86 SE9       30.14S WCI  11
HALSTAD          N/A     22  18  84 S14         N/A  WCI   9
FOSSTON        LGT SNOW  19  18  93 SE7       30.15S WCI  10
BAUDETTE       CLOUDY    19  15  84 S8        30.16F WCI   9
WASKISH        CLOUDY    19  18  93 CALM      30.17F
CROOKSTON      CLOUDY    21  19  93 S12       30.15S WCI   9
$$
  *****  WEATHER ACROSS CENTRAL AND WEST MINNESOTA  *****

CITY           SKY/WX    TMP DP  RH WIND       PRES   REMARKS
BEMIDJI        CLOUDY    19  15  87 S8        30.16S WCI   8
PARK RAPIDS    CLOUDY    19  15  84 SE9       30.16F WCI   8
WADENA         CLOUDY    18  16  93 NW7       30.18R WCI   8
DETROIT LAKES  LGT SNOW  21  19  93 SE9       30.15F WCI  11
MOORHEAD       LGT RAIN  21  21 100 S13       30.15S WCI   9
FERGUS FALLS   MOCLDY    21  18  86 S12       30.20S WCI   9
ELBOW LAKE     FLURRIES  21  19  93 SE13      30.16F WCI   8
MORRIS MN      PTCLDY    21  21 100 SE10      30.17F FOG     WCI  10
STAPLES        LGT SNOW  18  16  93 SE5       30.19S WCI  11
WHEATON        CLOUDY    21  19  93 SE12      30.18S WCI   9
$$
  *****  WEATHER ELSEWHERE ACROSS MINNESOTA  *****

CITY           SKY/WX    TMP DP  RH WIND       PRES   REMARKS
DULUTH         FLURRIES  20  18  92 S7        30.21S WCI  11
INTRNTL FALLS  LGT SNOW  21  17  84 S3        30.19S FOG
ELY            CLOUDY    21  18  86 S8        30.21R WCI  12
CLOQUET        CLOUDY    19  18  93 S6        30.23R WCI  11
BRAINERD       LGT SNOW  19  15  84 S5        30.22S FOG     WCI  12
HIBBING        CLOUDY    22  17  81 S3        30.20S
ALEXANDRIA     CLOUDY    20  17  88 SE8       30.18F WCI  10
SAINT CLOUD    LGT SNOW  22  16  78 SE8       30.23F WCI  12
MINNEAPOLIS    CLOUDY    21  15  78 SE6       30.28S WCI  13
$$

  *****  WEATHER ACROSS SOUTH DAKOTA  *****

CITY           SKY/WX    TMP DP  RH WIND       PRES   REMARKS
SIOUX FALLS    CLOUDY    28  25  88 S7        30.17S WCI  21
BROOKINGS      NOT AVBL
WATERTOWN      CLOUDY    26  24  92 S8        30.11F FOG     WCI  18
HURON          CLOUDY    28  25  88 S10       30.11F WCI  19
SISSETON       NOT AVBL
ABERDEEN       CLOUDY    28  24  85 S9        30.10F WCI  19
MITCHELL         N/A     29  26  89 MISG      30.14F
PIERRE         FOG       13  11  92 CALM      30.04S VSB 1/2
MOBRIDGE       CLEAR     21  19  92 SE8       29.98F WCI  11
RAPID CITY     CLEAR     23  16  74 NW6       29.98F WCI  16
$$

  *****  SOME WEATHER IN NEARBY STATES *****

CITY           SKY/WX    TMP DP  RH WIND       PRES   REMARKS
GLASGOW MT     PTCLDY    18  14  84 N5        29.91S WCI  11
GREAT FALLS MT CLEAR     31  25  78 SW13      29.89S WCI  21
CHEYENNE WY    CLEAR     23  11  60 SW8       30.04F WCI  14
SCOTTSBLUFF NE CLEAR      6   3  87 N3        30.06F
OMAHA NE       CLOUDY    31  28  89 S6        30.24F
DES MOINES IA  FRZ DRZL  28  24  85 SE3       30.28S
DAVENPORT IA   CLEAR     17  13  84 CALM      30.30F
CHICAGO IL     CLOUDY    27  22  81 NW8       30.27R WCI  19
EAU CLAIRE WI  CLOUDY    24  19  81 S3        30.27S
LA CROSSE WI   CLOUDY    26  18  71 SW6       30.30R WCI  19
$$

  *****  SOME NATIONAL WEATHER *****

CITY           SKY/WX    TMP DP  RH WIND       PRES   REMARKS
LA GUARDIA NY  MOCLDY    37  26  64 NW16      29.97R
RALEIGH NC     MOCLDY    39  31  72 CALM      30.11R
ATLANTA GA     MOCLDY    39  33  79 NW6       30.12F
NEW ORLEANS LA CLOUDY    58  52  80 E9        30.08F
OKLAHOMA CITY  CLOUDY    41  37  86 N6        30.20F
ALBUQUERQUE NM CLEAR     35  27  72 NW9       30.15F
SALT LAKE CITY PTCLDY    32  26  78 S8        30.18F WCI  25
LOS ANGELES CA PTCLDY    55  49  80 NE5       30.21F
BOISE ID       CLOUDY    44  32  62 SE12      30.07F
SEATTLE WA     LGT RAIN  48  46  93 S9        29.79R
$$

*** WEATHER ACROSS MANITOBA...SASKATCHEWAN AND ONTARIO ***
                ***ONTARIO***

CITY           SKY/WX    TMP DP  RH WIND       PRES   REMARKS
GERALDTON      CLEAR    -11 -15  84 N1        30.26R
THUNDER BAY    CLEAR     -2  -4  92 SW6       30.32R WCI -14
SIOUX LOOKOUT  FLURRIES  12  10  92 CALM      30.20S
TORONTO        CLOUDY    25  19  80 N10       30.13R WCI  15
BIG TROUT LK   CLEAR      3   1  92 SW7       30.17S WCI  -9
PICKLE LAKE    NOT AVBL
DRYDEN         CLOUDY    18  16  93 SE9       30.17F WCI   6
KENORA         CLOUDY    18  14  86 S12       30.15F WCI   5
$$
                *** MANITOBA***

CITY           SKY/WX    TMP DP  RH WIND       PRES   REMARKS
BRANDON        FLURRIES  19  18  93 SE5       30.00F WCI  13
DAUPHIN        FLURRIES  16  14  93 NE2       30.02S
ISLAND LAKE    CLEAR      7   3  85 S6        30.10S WCI  -3
PILOT MOUND      N/A     21  19  93 S7          N/A  WCI  13
THE PAS        CLOUDY    16  14  93 SE7       29.96  WCI   6
THOMPSON       FLURRIES   9   5  85 VRB2      29.99
WINNIPEG       FRZ DRZL  19  18  93 S12G18    30.11F FOG     WCI   7
LYNN LAKE      LGT SNOW  14  14 100 SW5       29.88R WCI   6
CHURCHILL      FLURRIES   3   1  92 S6        29.97S WCI  -8
GILLAM         LGT SNOW   7   3  85 SW8       30.02S WCI  -6
$$
                ***SASKATCHEWAN***

CITY           SKY/WX    TMP DP  RH WIND       PRES   REMARKS
ESTEVAN        LGT SNOW  25  23  93 SW6       29.91F FOG     WCI  18
KINDERSLEY     FOG       12   9  85 S5        29.88S VSB 1/8 WCI   4
LLOYDMINSTER   FOG       10   9  92 S5        29.86S VSB 1/2 WCI   2
PRINCE ALBERT  FLURRIES  19  18  93 W7        29.91S WCI  10
REGINA         FOG       23  23 100 W5        29.90S VSB 1/4 WCI  17
YORKTON        CLOUDY    19  19 100 SE6       29.92R FOG     WCI  11



USA.gov is the U.S. government's official web portal to all federal, state and local government web resources and services.